This demonstration page uses our WeatherBlox Daily Observations layout. Learn more.

Left ArrowRight Arrow

Hourly Observations for June 26, 2021

Temp ( °F °C ) Dew Point ( °F °C ) Humidity (%) Winds ( mph kmh ) Pressure ( in mb ) Visibility ( mi km ) Precip ( " mm )
12:51 am 00:51 Clear 81 27.2 40 4.4 23 23 WNW 10 17 29.65 1004 10 16 N/A
1:51 am 01:51 Clear 80 26.7 39 3.9 23 23 WNW 8 13 29.65 1004 10 16 N/A
2:51 am 02:51 Clear 75 23.9 38 3.3 26 26 NW 6 9 29.66 1005 10 16 N/A
3:51 am 03:51 Clear 78 25.6 38 3.3 24 24 NNW 8 13 29.66 1004 10 16 N/A
4:51 am 04:51 Clear 76 24.4 37 2.8 24 24 NNW 9 15 29.69 1005 10 16 N/A
5:51 am 05:51 Sunny 70 21.1 38 3.3 31 31 E 5 7 29.72 1006 10 16 N/A
6:51 am 06:51 Sunny 78 25.6 39 3.9 25 25 S 5 7 29.71 1006 10 16 N/A
7:51 am 07:51 Sunny 83 28.3 40 4.4 22 22 VRB 5 7 29.72 1006 10 16 N/A
8:51 am 08:51 Sunny 92 33.3 40 4.4 16 16 WNW 10 17 29.70 1006 10 16 N/A
9:51 am 09:51 Mostly Sunny 95 35 40 4.4 15 15 NW 10 17 29.68 1005 10 16 N/A
10:51 am 10:51 Partly Cloudy 97 36.1 38 3.3 13 13 W 13 20 29.67 1005 10 16 N/A
11:51 am 11:51 Sunny 99 37.2 37 2.8 12 12 W 16 26 29.65 1004 10 16 N/A
12:51 pm 12:51 Sunny 100 37.8 37 2.8 11 11 W 8 13 29.62 1003 10 16 N/A
2:51 pm 14:51 Mostly Cloudy 100 37.8 35 1.7 10 10 SW 12 19 29.59 1002 10 16 N/A
3:51 pm 15:51 Mostly Cloudy 101 38.3 36 2.2 10 10 WSW 13 20 29.57 1001 10 16 N/A
4:51 pm 16:51 Mostly Sunny 99 37.2 37 2.8 12 12 N 14 22 29.57 1001 10 16 N/A
5:51 pm 17:51 Mostly Cloudy 99 37.2 37 2.8 12 12 NNE 10 17 29.57 1001 10 16 N/A
6:51 pm 18:51 Mostly Cloudy 97 36.1 38 3.3 13 13 N 18 30 29.58 1002 10 16 N/A
7:51 pm 19:51 Mostly Clear 94 34.4 38 3.3 14 14 NNE 9 15 29.58 1002 10 16 N/A
8:51 pm 20:51 Mostly Clear 92 33.3 38 3.3 15 15 N N/A 29.60 1002 10 16 N/A
9:51 pm 21:51 Mostly Clear 87 30.6 37 2.8 17 17 WNW 6 9 29.62 1003 10 16 N/A
10:51 pm 22:51 Mostly Clear 84 28.9 36 2.2 18 18 ENE 7 11 29.62 1003 10 16 N/A
11:51 pm 23:51 Mostly Clear 82 27.8 36 2.2 19 19 W 5 7 29.62 1003 10 16 N/A

Powered by AerisWeather